Regional Weather Roundup
Issued by NWS Newport/Morehead, NC

Current Version | Previous Version | Text Only | Print | Product List | Glossary On
Versions: 1 2 3 4 5 6 7 8 9 10 11 12 13 14 15 16 17 18 19 20 21 22 23 24 25 26 27 28 29 30 31 32 33 34 35 36 37 38 39 40 41 42 43 44 45 46 47 48 49 50
000
ASUS42 KMHX 251014
RWRMHX
WEATHER ROUNDUP FOR EASTERN NORTH CAROLINA
NATIONAL WEATHER SERVICE NEWPORT/MOREHEAD CITY NC
600 AM EDT TUE JUL 25 2017

NOTE: "FAIR" INDICATES FEW OR NO CLOUDS BELOW 12,000 FEET
WITH NO SIGNIFICANT WEATHER AND/OR OBSTRUCTIONS TO VISIBILITY

NCZ015>017-031-032-045>047-102-103-251100-
NORTH COAST

CITY           SKY/WX    TMP DP  RH WIND       PRES   REMARKS
EDENTON        MOCLDY    80  76  88 CALM      29.99R
ELIZABETH CITY CLOUDY    77  77 100 W7        29.97R
KITTY HAWK     MOSUNNY   79  76  92 W7        29.96R
MANTEO         PTCLDY    78  76  94 W7        29.98R

$$

NCZ045>047-081-094-103-104-251100-
CENTRAL COAST

CITY           SKY/WX    TMP DP  RH WIND       PRES   REMARKS
FRISCO         MOCLDY    77  74  90 SW10      30.00R

$$

NCZ095-097-098-100-101-251100-
SOUTHERN COAST

CITY           SKY/WX    TMP DP  RH WIND       PRES   REMARKS
BEAUFORT       CLEAR     79  74  84 W7        30.01R
CEDAR ISLAND   NOT AVBL
JACKSONVILLE   MOCLDY    74  73  97 W5        30.01R
PINEY ISLAND   CLOUDY   N/A N/A N/A SW7       30.00R
WILMINGTON     MOCLDY    76  74  93 W6        30.02R


$$

NCZ011>013-027>030-043-044-078>080-089-090>093-098-251100-
COASTAL PLAIN

CITY           SKY/WX    TMP DP  RH WIND       PRES   REMARKS
AHOSKIE          N/A     73  73  98 CALM      29.99R FOG
CLINTON        PTCLDY    73  73  98 CALM      30.02R
ELIZABETHTOWN  NOT AVBL
GOLDSBORO      PTCLDY    74  74 100 W7        30.00R
GREENVILLE     PTCLDY    75  73  94 SW6       30.02R
HAVELOCK       PTCLDY    77  70  79 W10       30.02R
KENANSVILLE    CLEAR     73  72  94 W5        30.02R
KINSTON        CLEAR     74  71  91 W3        30.01R
NEW BERN       CLOUDY    76  72  87 W7        30.01S
RICHLANDS      MOCLDY    72  71  97 SW5       30.02S
ROCKY MOUNT    PTCLDY    75  75 100 S5        30.01R FOG
WASHINGTON     CLOUDY    75  73  92 SW7       30.00R
WHITEVILLE     PTCLDY    73  72  96 CALM      30.02R

$$

AMZ130-135-150-152-154-156-158-170-250-252-270-ANZ085-086-088-633-658-670-251100-
MARINE OBSERVATIONS

STATION/POSITION TIME  TEMP    WIND        PRES    WAVE   SWELL
                       AIR SEA DIR/SP/G            HT/PER HT/PER
                 (UTC) (F)     (DEG/KT/KT) (MB)    (FT/S) (FT/S)
CHESAPEAKE LIGHT NOT AVBL
64 E VA BEACH    0950   79 78  250/ 10/ 12 1014.5    4/ 7   3/ 7
DUCK             0948   81 65  260/ 11/ 14 1014.4
2 E DUCK         1000      69                N/A     2/11
OREGON INLET     0948          240/ 12/ 14   N/A
13E OREGON INLT  0948      69                N/A     4/ 6   2/ 7
HATTERAS CG      0948   77 78  240/  8/ 12 1015.7
DIAMOND BUOY     0950   81 84  260/ 19/ 23 1015.4    6/ 6   2/ 9
CAPE LOOKOUT     1000   79     270/ 11/ 13 1016.0
BEAUFORT LAB     0948   79 80  240/  3/  7 1015.7
30 SE NEW RVR IN 0908   80 83  260/ 12/ 16 1016.3
30 SE NEW RVR IN 0943      83                N/A     5/ 6
27 SE WRIGHTSVLE 0908   81 83  230/ 12/ 17 1016.0
5 SE WRIGHTSVLE  0908   80 81  280/ 12/ 19 1016.0
225 S CAPE HAT   0950   83 83  210/ 16/ 17 1018.9    5/ 6   2/11
41 SE CHARLESTON 0950   81 81  240/ 14/ 17 1016.4    3/ 5   2/ 8

$$




USA.gov is the U.S. government's official web portal to all federal, state and local government web resources and services.